Year,Month,Day,Hour,Minute,Value (Times are PST for temperature in C)
2010,08,16,00,00,20.70
2010,08,16,00,01,20.70
2010,08,16,00,02,20.70
2010,08,16,00,03,20.70
2010,08,16,00,04,20.70
2010,08,16,00,05,20.70
2010,08,16,00,06,20.70
2010,08,16,00,07,20.60
2010,08,16,00,08,20.60
2010,08,16,00,09,20.60
2010,08,16,00,10,20.60
2010,08,16,00,11,20.60
2010,08,16,00,12,20.60
2010,08,16,00,13,20.60
2010,08,16,00,14,20.60
2010,08,16,00,15,20.60
2010,08,16,00,16,20.60
2010,08,16,00,17,20.60
2010,08,16,00,18,20.60
2010,08,16,00,19,20.60
2010,08,16,00,20,20.60
2010,08,16,00,21,20.60
2010,08,16,00,22,20.50
2010,08,16,00,23,20.50
2010,08,16,00,24,20.50
2010,08,16,00,25,20.50
2010,08,16,00,26,20.40
2010,08,16,00,27,20.40
2010,08,16,00,28,20.30
2010,08,16,00,29,20.30
2010,08,16,00,30,20.30
2010,08,16,00,31,20.30
2010,08,16,00,32,20.30
2010,08,16,00,33,20.20
2010,08,16,00,34,20.20
2010,08,16,00,35,20.30
2010,08,16,00,36,20.30
2010,08,16,00,37,20.30
2010,08,16,00,38,20.30
2010,08,16,00,39,20.30
2010,08,16,00,40,20.30
2010,08,16,00,41,20.30
2010,08,16,00,42,20.30
2010,08,16,00,43,20.30
2010,08,16,00,44,20.20
2010,08,16,00,45,20.20
2010,08,16,00,46,20.20
2010,08,16,00,47,20.30
2010,08,16,00,48,20.30
2010,08,16,00,49,20.30
2010,08,16,00,50,20.40
2010,08,16,00,51,20.40
2010,08,16,00,52,20.40
2010,08,16,00,53,20.40
2010,08,16,00,54,20.50
2010,08,16,00,55,20.50
2010,08,16,00,56,20.50
2010,08,16,00,57,20.50
2010,08,16,00,58,20.50
2010,08,16,00,59,20.50
2010,08,16,01,00,20.40
2010,08,16,01,01,20.40
2010,08,16,01,02,20.40
2010,08,16,01,03,20.40
2010,08,16,01,04,20.30
2010,08,16,01,05,20.30
2010,08,16,01,06,20.30
2010,08,16,01,07,20.30
2010,08,16,01,08,20.40
2010,08,16,01,09,20.40
2010,08,16,01,10,20.40
2010,08,16,01,11,20.40
2010,08,16,01,12,20.50
2010,08,16,01,13,20.50
2010,08,16,01,14,20.50
2010,08,16,01,15,20.50
2010,08,16,01,16,20.50
2010,08,16,01,17,20.60
2010,08,16,01,18,20.60
2010,08,16,01,19,20.70
2010,08,16,01,20,20.70
2010,08,16,01,21,20.70
2010,08,16,01,22,20.80
2010,08,16,01,23,20.80
2010,08,16,01,24,20.90
2010,08,16,01,25,21.00
2010,08,16,01,26,21.00
2010,08,16,01,27,21.00
2010,08,16,01,28,21.00
2010,08,16,01,29,21.00
2010,08,16,01,30,21.00
2010,08,16,01,31,21.00
2010,08,16,01,32,21.00
2010,08,16,01,33,21.00
2010,08,16,01,34,21.00
2010,08,16,01,35,21.00
2010,08,16,01,36,20.90
2010,08,16,01,37,20.90
2010,08,16,01,38,20.90
2010,08,16,01,39,20.90
2010,08,16,01,40,20.90
2010,08,16,01,41,20.80
2010,08,16,01,42,20.70
2010,08,16,01,43,20.70
2010,08,16,01,44,20.70
2010,08,16,01,45,20.60
2010,08,16,01,46,20.50
2010,08,16,01,47,20.50
2010,08,16,01,48,20.40
2010,08,16,01,49,20.40
2010,08,16,01,50,20.30
2010,08,16,01,51,20.20
2010,08,16,01,52,20.20
2010,08,16,01,53,20.20
2010,08,16,01,54,20.20
2010,08,16,01,55,20.20
2010,08,16,01,56,20.20
2010,08,16,01,57,20.10
2010,08,16,01,58,20.10
2010,08,16,01,59,20.10
2010,08,16,02,00,20.00
2010,08,16,02,01,19.90
2010,08,16,02,02,19.90
2010,08,16,02,03,19.90
2010,08,16,02,04,19.90
2010,08,16,02,05,19.90
2010,08,16,02,06,19.90
2010,08,16,02,07,19.90
2010,08,16,02,08,19.90
2010,08,16,02,09,19.80
2010,08,16,02,10,19.80
2010,08,16,02,11,19.80
2010,08,16,02,12,19.70
2010,08,16,02,13,19.70
2010,08,16,02,14,19.70
2010,08,16,02,15,19.60
2010,08,16,02,16,19.60
2010,08,16,02,17,19.60
2010,08,16,02,18,19.60
2010,08,16,02,19,19.60
2010,08,16,02,20,19.60
2010,08,16,02,21,19.50
2010,08,16,02,22,19.50
2010,08,16,02,23,19.50
2010,08,16,02,24,19.50
2010,08,16,02,25,19.40
2010,08,16,02,26,19.40
2010,08,16,02,27,19.40
2010,08,16,02,28,19.40
2010,08,16,02,29,19.40
2010,08,16,02,30,19.40
2010,08,16,02,31,19.40
2010,08,16,02,32,19.40
2010,08,16,02,33,19.40
2010,08,16,02,34,19.30
2010,08,16,02,35,19.30
2010,08,16,02,36,19.30
2010,08,16,02,37,19.20
2010,08,16,02,38,19.20
2010,08,16,02,39,19.20
2010,08,16,02,40,19.20
2010,08,16,02,41,19.10
2010,08,16,02,42,19.10
2010,08,16,02,43,19.10
2010,08,16,02,44,19.10
2010,08,16,02,45,19.10
2010,08,16,02,46,19.10
2010,08,16,02,47,19.10
2010,08,16,02,48,19.10
2010,08,16,02,49,19.10
2010,08,16,02,50,19.10
2010,08,16,02,51,19.10
2010,08,16,02,52,19.10
2010,08,16,02,53,19.10
2010,08,16,02,54,19.10
2010,08,16,02,55,19.10
2010,08,16,02,56,19.10
2010,08,16,02,57,19.10
2010,08,16,02,58,19.10
2010,08,16,02,59,19.10
2010,08,16,03,00,19.10
2010,08,16,03,01,19.10
2010,08,16,03,02,19.10
2010,08,16,03,03,19.10
2010,08,16,03,04,19.10
2010,08,16,03,05,19.10
2010,08,16,03,06,19.10
2010,08,16,03,07,19.10
2010,08,16,03,08,19.10
2010,08,16,03,09,19.10
2010,08,16,03,10,19.10
2010,08,16,03,11,19.10
2010,08,16,03,12,19.10
2010,08,16,03,13,19.10
2010,08,16,03,14,19.10
2010,08,16,03,15,18.90
2010,08,16,03,16,18.90
2010,08,16,03,17,18.90
2010,08,16,03,18,18.90
2010,08,16,03,19,18.90
2010,08,16,03,20,18.90
2010,08,16,03,21,18.90
2010,08,16,03,22,18.90
2010,08,16,03,23,18.80
2010,08,16,03,24,18.80
2010,08,16,03,25,18.80
2010,08,16,03,26,18.80
2010,08,16,03,27,18.80
2010,08,16,03,28,18.70
2010,08,16,03,29,18.70
2010,08,16,03,30,18.70
2010,08,16,03,31,18.70
2010,08,16,03,32,18.60
2010,08,16,03,33,18.60
2010,08,16,03,34,18.60
2010,08,16,03,35,18.60
2010,08,16,03,36,18.60
2010,08,16,03,37,18.60
2010,08,16,03,38,18.60
2010,08,16,03,39,18.50
2010,08,16,03,40,18.50
2010,08,16,03,41,18.60
2010,08,16,03,42,18.60
2010,08,16,03,43,18.50
2010,08,16,03,44,18.50
2010,08,16,03,45,18.50
2010,08,16,03,46,18.40
2010,08,16,03,47,18.40
2010,08,16,03,48,18.30
2010,08,16,03,49,18.30
2010,08,16,03,50,18.20
2010,08,16,03,51,18.20
2010,08,16,03,52,18.20
2010,08,16,03,53,18.20
2010,08,16,03,54,18.20
2010,08,16,03,55,18.10
2010,08,16,03,56,18.10
2010,08,16,03,57,18.10
2010,08,16,03,58,18.10
2010,08,16,03,59,18.00
2010,08,16,04,00,17.90
2010,08,16,04,01,17.90
2010,08,16,04,02,17.90
2010,08,16,04,03,17.90
2010,08,16,04,04,17.90
2010,08,16,04,05,17.90
2010,08,16,04,06,17.90
2010,08,16,04,07,17.90
2010,08,16,04,08,17.90
2010,08,16,04,09,17.90
2010,08,16,04,10,17.90
2010,08,16,04,11,17.90
2010,08,16,04,12,17.80
2010,08,16,04,13,17.80
2010,08,16,04,14,17.80
2010,08,16,04,15,17.80
2010,08,16,04,16,17.70
2010,08,16,04,17,17.70
2010,08,16,04,18,17.70
2010,08,16,04,19,17.70
2010,08,16,04,20,17.70
2010,08,16,04,21,17.60
2010,08,16,04,22,17.60
2010,08,16,04,23,17.60
2010,08,16,04,24,17.60
2010,08,16,04,25,17.60
2010,08,16,04,26,17.60
2010,08,16,04,27,17.60
2010,08,16,04,28,17.60
2010,08,16,04,29,17.60
2010,08,16,04,30,17.50
2010,08,16,04,31,17.50
2010,08,16,04,32,17.50
2010,08,16,04,33,17.50
2010,08,16,04,34,17.50
2010,08,16,04,35,17.50
2010,08,16,04,36,17.50
2010,08,16,04,37,17.50
2010,08,16,04,38,17.50
2010,08,16,04,39,17.50
2010,08,16,04,40,17.40
2010,08,16,04,41,17.40
2010,08,16,04,42,17.40
2010,08,16,04,43,17.40
2010,08,16,04,44,17.40
2010,08,16,04,45,17.40
2010,08,16,04,46,17.40
2010,08,16,04,47,17.40
2010,08,16,04,48,17.40
2010,08,16,04,49,17.40
2010,08,16,04,50,17.40
2010,08,16,04,51,17.40
2010,08,16,04,52,17.40
2010,08,16,04,53,17.40
2010,08,16,04,54,17.50
2010,08,16,04,55,17.50
2010,08,16,04,56,17.50
2010,08,16,04,57,17.50
2010,08,16,04,58,17.60
2010,08,16,04,59,17.70
2010,08,16,05,00,17.70
2010,08,16,05,01,17.70
2010,08,16,05,02,17.70
2010,08,16,05,03,17.70
2010,08,16,05,04,17.70
2010,08,16,05,05,17.70
2010,08,16,05,06,17.70
2010,08,16,05,07,17.60
2010,08,16,05,08,17.60
2010,08,16,05,09,17.60
2010,08,16,05,10,17.60
2010,08,16,05,11,17.50
2010,08,16,05,12,17.50
2010,08,16,05,13,17.50
2010,08,16,05,14,17.50
2010,08,16,05,15,17.40
2010,08,16,05,16,17.40
2010,08,16,05,17,17.40
2010,08,16,05,18,17.40
2010,08,16,05,19,17.40
2010,08,16,05,20,17.40
2010,08,16,05,21,17.40
2010,08,16,05,22,17.40
2010,08,16,05,23,17.40
2010,08,16,05,24,17.30
2010,08,16,05,25,17.30
2010,08,16,05,26,17.30
2010,08,16,05,27,17.30
2010,08,16,05,28,17.30
2010,08,16,05,29,17.30
2010,08,16,05,30,17.30
2010,08,16,05,31,17.30
2010,08,16,05,32,17.20
2010,08,16,05,33,17.20
2010,08,16,05,34,17.20
2010,08,16,05,35,17.10
2010,08,16,05,36,17.10
2010,08,16,05,37,17.00
2010,08,16,05,38,17.00
2010,08,16,05,39,17.00
2010,08,16,05,40,16.90
2010,08,16,05,41,16.90
2010,08,16,05,42,16.80
2010,08,16,05,43,16.80
2010,08,16,05,44,16.80
2010,08,16,05,45,16.70
2010,08,16,05,46,16.70
2010,08,16,05,47,16.70
2010,08,16,05,48,16.70
2010,08,16,05,49,16.60
2010,08,16,05,50,16.60
2010,08,16,05,51,16.60
2010,08,16,05,52,16.50
2010,08,16,05,53,16.40
2010,08,16,05,54,16.40
2010,08,16,05,55,16.40
2010,08,16,05,56,16.40
2010,08,16,05,57,16.30
2010,08,16,05,58,16.30
2010,08,16,05,59,16.30
2010,08,16,06,00,16.30
2010,08,16,06,01,16.20
2010,08,16,06,02,16.20
2010,08,16,06,03,16.20
2010,08,16,06,04,16.20
2010,08,16,06,05,16.20
2010,08,16,06,06,16.10
2010,08,16,06,07,16.20
2010,08,16,06,08,16.20
2010,08,16,06,09,16.20
2010,08,16,06,10,16.20
2010,08,16,06,11,16.20
2010,08,16,06,12,16.30
2010,08,16,06,13,16.30
2010,08,16,06,14,16.30
2010,08,16,06,15,16.30
2010,08,16,06,16,16.40
2010,08,16,06,17,16.40
2010,08,16,06,18,16.40
2010,08,16,06,19,16.40
2010,08,16,06,20,16.40
2010,08,16,06,21,16.40
2010,08,16,06,22,16.40
2010,08,16,06,23,16.40
2010,08,16,06,24,16.40
2010,08,16,06,25,16.40
2010,08,16,06,26,16.40
2010,08,16,06,27,16.40
2010,08,16,06,28,16.40
2010,08,16,06,29,16.30
2010,08,16,06,30,16.30
2010,08,16,06,31,16.30
2010,08,16,06,32,16.20
2010,08,16,06,33,16.20
2010,08,16,06,34,16.20
2010,08,16,06,35,16.20
2010,08,16,06,36,16.20
2010,08,16,06,37,16.20
2010,08,16,06,38,16.20
2010,08,16,06,39,16.20
2010,08,16,06,40,16.20
2010,08,16,06,41,16.20
2010,08,16,06,42,16.20
2010,08,16,06,43,16.20
2010,08,16,06,44,16.20
2010,08,16,06,45,16.20
2010,08,16,06,46,16.20
2010,08,16,06,47,16.20
2010,08,16,06,48,16.20
2010,08,16,06,49,16.20
2010,08,16,06,50,16.20
2010,08,16,06,51,16.20
2010,08,16,06,52,16.20
2010,08,16,06,53,16.20
2010,08,16,06,54,16.20
2010,08,16,06,55,16.20
2010,08,16,06,56,16.20
2010,08,16,06,57,16.20
2010,08,16,06,58,16.20
2010,08,16,06,59,16.20
2010,08,16,07,00,16.20
2010,08,16,07,01,16.20
2010,08,16,07,02,16.20
2010,08,16,07,03,16.30
2010,08,16,07,04,16.30
2010,08,16,07,05,16.30
2010,08,16,07,06,16.30
2010,08,16,07,07,16.20
2010,08,16,07,08,16.20
2010,08,16,07,09,16.20
2010,08,16,07,10,16.20
2010,08,16,07,11,16.20
2010,08,16,07,12,16.20
2010,08,16,07,13,16.20
2010,08,16,07,14,16.20
2010,08,16,07,15,16.20
2010,08,16,07,16,16.20
2010,08,16,07,17,16.20
2010,08,16,07,18,16.20
2010,08,16,07,19,16.20
2010,08,16,07,20,16.20
2010,08,16,07,21,16.20
2010,08,16,07,22,16.20
2010,08,16,07,23,16.30
2010,08,16,07,24,16.30
2010,08,16,07,25,16.30
2010,08,16,07,26,16.40
2010,08,16,07,27,16.40
2010,08,16,07,28,16.40
2010,08,16,07,29,16.50
2010,08,16,07,30,16.60
2010,08,16,07,31,16.60
2010,08,16,07,32,16.60
2010,08,16,07,33,16.60
2010,08,16,07,34,16.70
2010,08,16,07,35,16.70
2010,08,16,07,36,16.80
2010,08,16,07,37,16.90
2010,08,16,07,38,16.90
2010,08,16,07,39,16.90
2010,08,16,07,40,17.00
2010,08,16,07,41,17.00
2010,08,16,07,42,17.00
2010,08,16,07,43,17.10
2010,08,16,07,44,17.10
2010,08,16,07,45,17.10
2010,08,16,07,46,17.20
2010,08,16,07,47,17.20
2010,08,16,07,48,17.20
2010,08,16,07,49,17.30
2010,08,16,07,50,17.30
2010,08,16,07,51,17.30
2010,08,16,07,52,17.40
2010,08,16,07,53,17.50
2010,08,16,07,54,17.70
2010,08,16,07,55,17.80
2010,08,16,07,56,17.90
2010,08,16,07,57,18.10
2010,08,16,07,58,18.20
2010,08,16,07,59,18.40
2010,08,16,08,00,18.50
2010,08,16,08,01,18.60
2010,08,16,08,02,18.60
2010,08,16,08,03,18.70
2010,08,16,08,04,18.90
2010,08,16,08,05,19.00
2010,08,16,08,06,19.10
2010,08,16,08,07,19.20
2010,08,16,08,08,19.30
2010,08,16,08,09,19.40
2010,08,16,08,10,19.70
2010,08,16,08,11,19.90
2010,08,16,08,12,20.00
2010,08,16,08,13,20.10
2010,08,16,08,14,20.20
2010,08,16,08,15,20.40
2010,08,16,08,16,20.50
2010,08,16,08,17,20.60
2010,08,16,08,18,20.80
2010,08,16,08,19,20.90
2010,08,16,08,20,21.00
2010,08,16,08,21,21.10
2010,08,16,08,22,21.30
2010,08,16,08,23,21.40
2010,08,16,08,24,21.50
2010,08,16,08,25,21.60
2010,08,16,08,26,21.80
2010,08,16,08,27,21.90
2010,08,16,08,28,22.00
2010,08,16,08,29,22.10
2010,08,16,08,30,22.20
2010,08,16,08,31,22.30
2010,08,16,08,32,22.40
2010,08,16,08,33,22.60
2010,08,16,08,34,22.70
2010,08,16,08,35,22.70
2010,08,16,08,36,22.80
2010,08,16,08,37,22.90
2010,08,16,08,38,22.90
2010,08,16,08,39,22.90
2010,08,16,08,40,22.80
2010,08,16,08,41,22.70
2010,08,16,08,42,22.60
2010,08,16,08,43,22.50
2010,08,16,08,44,22.30
2010,08,16,08,45,22.20
2010,08,16,08,46,22.00
2010,08,16,08,47,21.90
2010,08,16,08,48,21.70
2010,08,16,08,49,21.70
2010,08,16,08,50,21.60
2010,08,16,08,51,21.60
2010,08,16,08,52,21.60
2010,08,16,08,53,21.60
2010,08,16,08,54,21.60
2010,08,16,08,55,21.60
2010,08,16,08,56,21.60
2010,08,16,08,57,21.70
2010,08,16,08,58,21.70
2010,08,16,08,59,21.80
2010,08,16,09,00,21.80
2010,08,16,09,01,21.80
2010,08,16,09,02,21.80
2010,08,16,09,03,21.90
2010,08,16,09,04,22.00
2010,08,16,09,05,22.10
2010,08,16,09,06,22.10
2010,08,16,09,07,22.20
2010,08,16,09,08,22.20
2010,08,16,09,09,22.20
2010,08,16,09,10,22.20
2010,08,16,09,11,22.30
2010,08,16,09,12,22.40
2010,08,16,09,13,22.50
2010,08,16,09,14,22.50
2010,08,16,09,15,22.60
2010,08,16,09,16,22.70
2010,08,16,09,17,22.80
2010,08,16,09,18,22.90
2010,08,16,09,19,23.10
2010,08,16,09,20,23.30
2010,08,16,09,21,23.30
2010,08,16,09,22,23.30
2010,08,16,09,23,23.40
2010,08,16,09,24,23.50
2010,08,16,09,25,23.60
2010,08,16,09,26,23.70
2010,08,16,09,27,23.70
2010,08,16,09,28,23.90
2010,08,16,09,29,24.00
2010,08,16,09,30,24.10
2010,08,16,09,31,24.10
2010,08,16,09,32,24.20
2010,08,16,09,33,24.30
2010,08,16,09,34,24.40
2010,08,16,09,35,24.50
2010,08,16,09,36,24.60
2010,08,16,09,37,24.70
2010,08,16,09,38,24.80
2010,08,16,09,39,24.90
2010,08,16,09,40,25.00
2010,08,16,09,41,25.00
2010,08,16,09,42,25.00
2010,08,16,09,43,24.90
2010,08,16,09,44,24.90
2010,08,16,09,45,24.80
2010,08,16,09,46,24.70
2010,08,16,09,47,24.70
2010,08,16,09,48,24.80
2010,08,16,09,49,24.80
2010,08,16,09,50,24.80
2010,08,16,09,51,24.70
2010,08,16,09,52,24.80
2010,08,16,09,53,24.80
2010,08,16,09,54,24.80
2010,08,16,09,55,24.70
2010,08,16,09,56,24.70
2010,08,16,09,57,24.70
2010,08,16,09,58,24.80
2010,08,16,09,59,24.90
2010,08,16,10,00,24.90
2010,08,16,10,01,24.80
2010,08,16,10,02,24.80
2010,08,16,10,03,24.80
2010,08,16,10,04,24.80
2010,08,16,10,05,24.80
2010,08,16,10,06,24.80
2010,08,16,10,07,24.80
2010,08,16,10,08,24.80
2010,08,16,10,09,24.80
2010,08,16,10,10,24.70
2010,08,16,10,11,24.70
2010,08,16,10,12,24.70
2010,08,16,10,13,24.70
2010,08,16,10,14,24.70
2010,08,16,10,15,24.80
2010,08,16,10,16,24.80
2010,08,16,10,17,24.80
2010,08,16,10,18,24.80
2010,08,16,10,19,24.90
2010,08,16,10,20,25.00
2010,08,16,10,21,25.00
2010,08,16,10,22,25.00
2010,08,16,10,23,24.90
2010,08,16,10,24,24.80
2010,08,16,10,25,24.80
2010,08,16,10,26,24.80
2010,08,16,10,27,24.90
2010,08,16,10,28,24.90
2010,08,16,10,29,24.90
2010,08,16,10,30,24.90
2010,08,16,10,31,24.80
2010,08,16,10,32,24.80
2010,08,16,10,33,24.80
2010,08,16,10,34,24.90
2010,08,16,10,35,25.00
2010,08,16,10,36,25.10
2010,08,16,10,37,25.20
2010,08,16,10,38,25.20
2010,08,16,10,39,25.30
2010,08,16,10,40,25.30
2010,08,16,10,41,25.10
2010,08,16,10,42,24.90
2010,08,16,10,43,24.90
2010,08,16,10,44,24.90
2010,08,16,10,45,24.80
2010,08,16,10,46,24.70
2010,08,16,10,47,24.80
2010,08,16,10,48,24.80
2010,08,16,10,49,24.90
2010,08,16,10,50,25.00
2010,08,16,10,51,25.10
2010,08,16,10,52,25.30
2010,08,16,10,53,25.30
2010,08,16,10,54,25.40
2010,08,16,10,55,25.40
2010,08,16,10,56,25.50
2010,08,16,10,57,25.50
2010,08,16,10,58,25.60
2010,08,16,10,59,25.70
2010,08,16,11,00,25.80
2010,08,16,11,01,25.80
2010,08,16,11,02,25.80
2010,08,16,11,03,25.80
2010,08,16,11,04,25.70
2010,08,16,11,05,25.40
2010,08,16,11,06,25.30
2010,08,16,11,07,25.10
2010,08,16,11,08,25.00
2010,08,16,11,09,24.90
2010,08,16,11,10,24.80
2010,08,16,11,11,24.80
2010,08,16,11,12,24.80
2010,08,16,11,13,24.90
2010,08,16,11,14,25.00
2010,08,16,11,15,25.10
2010,08,16,11,16,25.00
2010,08,16,11,17,24.90
2010,08,16,11,18,24.80
2010,08,16,11,19,24.80
2010,08,16,11,20,24.80
2010,08,16,11,21,24.80
2010,08,16,11,22,24.90
2010,08,16,11,23,24.90
2010,08,16,11,24,25.00
2010,08,16,11,25,25.00
2010,08,16,11,26,25.00
2010,08,16,11,27,25.00
2010,08,16,11,28,24.90
2010,08,16,11,29,24.80
2010,08,16,11,30,24.70
2010,08,16,11,31,24.50
2010,08,16,11,32,24.50
2010,08,16,11,33,24.60
2010,08,16,11,34,24.50
2010,08,16,11,35,24.50
2010,08,16,11,36,24.50
2010,08,16,11,37,24.50
2010,08,16,11,38,24.60
2010,08,16,11,39,24.60
2010,08,16,11,40,24.60
2010,08,16,11,41,24.60
2010,08,16,11,42,24.70
2010,08,16,11,43,24.80
2010,08,16,11,44,24.90
2010,08,16,11,45,25.00
2010,08,16,11,46,25.10
2010,08,16,11,47,25.10
2010,08,16,11,48,25.10
2010,08,16,11,49,25.10
2010,08,16,11,50,25.10
2010,08,16,11,51,25.10
2010,08,16,11,52,25.00
2010,08,16,11,53,25.00
2010,08,16,11,54,25.00
2010,08,16,11,55,25.20
2010,08,16,11,56,25.30
2010,08,16,11,57,25.30
2010,08,16,11,58,25.20
2010,08,16,11,59,25.10
2010,08,16,12,00,25.10
2010,08,16,12,01,25.20
2010,08,16,12,02,25.30
2010,08,16,12,03,25.40
2010,08,16,12,04,25.40
2010,08,16,12,05,25.50
2010,08,16,12,06,25.60
2010,08,16,12,07,25.70
2010,08,16,12,08,25.70
2010,08,16,12,09,25.60
2010,08,16,12,10,25.60
2010,08,16,12,11,25.60
2010,08,16,12,12,25.60
2010,08,16,12,13,25.70
2010,08,16,12,14,25.70
2010,08,16,12,15,25.70
2010,08,16,12,16,25.70
2010,08,16,12,17,25.80
2010,08,16,12,18,25.80
2010,08,16,12,19,25.80
2010,08,16,12,20,25.90
2010,08,16,12,21,25.90
2010,08,16,12,22,25.90
2010,08,16,12,23,25.90
2010,08,16,12,24,25.90
2010,08,16,12,25,25.80
2010,08,16,12,26,25.80
2010,08,16,12,27,25.90
2010,08,16,12,28,26.00
2010,08,16,12,29,25.90
2010,08,16,12,30,25.80
2010,08,16,12,31,25.70
2010,08,16,12,32,25.60
2010,08,16,12,33,25.60
2010,08,16,12,34,25.60
2010,08,16,12,35,25.60
2010,08,16,12,36,25.70
2010,08,16,12,37,25.60
2010,08,16,12,38,25.60
2010,08,16,12,39,25.60
2010,08,16,12,40,25.60
2010,08,16,12,41,25.50
2010,08,16,12,42,25.60
2010,08,16,12,43,25.60
2010,08,16,12,44,25.80
2010,08,16,12,45,25.90
2010,08,16,12,46,26.00
2010,08,16,12,47,26.20
2010,08,16,12,48,26.40
2010,08,16,12,49,26.50
2010,08,16,12,50,26.60
2010,08,16,12,51,26.70
2010,08,16,12,52,26.90
2010,08,16,12,53,26.90
2010,08,16,12,54,26.90
2010,08,16,12,55,27.10
2010,08,16,12,56,27.20
2010,08,16,12,57,27.20
2010,08,16,12,58,27.20
2010,08,16,12,59,27.20
2010,08,16,13,00,27.00
2010,08,16,13,01,26.90
2010,08,16,13,02,26.90
2010,08,16,13,03,27.00
2010,08,16,13,04,27.10
2010,08,16,13,05,27.20
2010,08,16,13,06,27.30
2010,08,16,13,07,27.20
2010,08,16,13,08,27.20
2010,08,16,13,09,27.10
2010,08,16,13,10,27.00
2010,08,16,13,11,26.90
2010,08,16,13,12,26.80
2010,08,16,13,13,26.80
2010,08,16,13,14,26.90
2010,08,16,13,15,26.80
2010,08,16,13,16,26.80
2010,08,16,13,17,26.80
2010,08,16,13,18,26.70
2010,08,16,13,19,26.70
2010,08,16,13,20,26.80
2010,08,16,13,21,26.90
2010,08,16,13,22,27.20
2010,08,16,13,23,27.30
2010,08,16,13,24,27.50
2010,08,16,13,25,27.70
2010,08,16,13,26,27.70
2010,08,16,13,27,27.70
2010,08,16,13,28,27.80
2010,08,16,13,29,27.90
2010,08,16,13,30,28.10
2010,08,16,13,31,28.10
2010,08,16,13,32,28.10
2010,08,16,13,33,28.00
2010,08,16,13,34,28.00
2010,08,16,13,35,28.00
2010,08,16,13,36,28.00
2010,08,16,13,37,28.00
2010,08,16,13,38,28.10
2010,08,16,13,39,28.10
2010,08,16,13,40,28.00
2010,08,16,13,41,28.00
2010,08,16,13,42,28.00
2010,08,16,13,43,28.10
2010,08,16,13,44,28.10
2010,08,16,13,45,28.00
2010,08,16,13,46,27.90
2010,08,16,13,47,27.90
2010,08,16,13,48,28.00
2010,08,16,13,49,28.10
2010,08,16,13,50,28.10
2010,08,16,13,51,28.20
2010,08,16,13,52,28.20
2010,08,16,13,53,28.20
2010,08,16,13,54,28.00
2010,08,16,13,55,28.00
2010,08,16,13,56,28.00
2010,08,16,13,57,28.00
2010,08,16,13,58,28.00
2010,08,16,13,59,27.90
2010,08,16,14,00,28.00
2010,08,16,14,01,28.10
2010,08,16,14,02,28.20
2010,08,16,14,03,28.30
2010,08,16,14,04,28.30
2010,08,16,14,05,28.30
2010,08,16,14,06,28.30
2010,08,16,14,07,28.30
2010,08,16,14,08,28.30
2010,08,16,14,09,28.30
2010,08,16,14,10,28.40
2010,08,16,14,11,28.50
2010,08,16,14,12,28.60
2010,08,16,14,13,28.60
2010,08,16,14,14,28.60
2010,08,16,14,15,28.60
2010,08,16,14,16,28.70
2010,08,16,14,17,28.80
2010,08,16,14,18,28.90
2010,08,16,14,19,28.90
2010,08,16,14,20,28.90
2010,08,16,14,21,28.90
2010,08,16,14,22,28.90
2010,08,16,14,23,28.90
2010,08,16,14,24,28.90
2010,08,16,14,25,28.80
2010,08,16,14,26,28.80
2010,08,16,14,27,28.70
2010,08,16,14,28,28.60
2010,08,16,14,29,28.60
2010,08,16,14,30,28.50
2010,08,16,14,31,28.50
2010,08,16,14,32,28.60
2010,08,16,14,33,28.60
2010,08,16,14,34,28.60
2010,08,16,14,35,28.60
2010,08,16,14,36,28.60
2010,08,16,14,37,28.60
2010,08,16,14,38,28.70
2010,08,16,14,39,28.80
2010,08,16,14,40,28.70
2010,08,16,14,41,28.70
2010,08,16,14,42,28.70
2010,08,16,14,43,28.60
2010,08,16,14,44,28.60
2010,08,16,14,45,28.50
2010,08,16,14,46,28.40
2010,08,16,14,47,28.50
2010,08,16,14,48,28.60
2010,08,16,14,49,28.60
2010,08,16,14,50,28.60
2010,08,16,14,51,28.60
2010,08,16,14,52,28.60
2010,08,16,14,53,28.60
2010,08,16,14,54,28.70
2010,08,16,14,55,28.80
2010,08,16,14,56,28.90
2010,08,16,14,57,28.90
2010,08,16,14,58,28.90
2010,08,16,14,59,28.80
2010,08,16,15,00,28.80
2010,08,16,15,01,28.70
2010,08,16,15,02,28.70
2010,08,16,15,03,28.60
2010,08,16,15,04,28.40
2010,08,16,15,05,28.30
2010,08,16,15,06,28.30
2010,08,16,15,07,28.40
2010,08,16,15,08,28.50
2010,08,16,15,09,28.60
2010,08,16,15,10,28.40
2010,08,16,15,11,28.40
2010,08,16,15,12,28.30
2010,08,16,15,13,28.10
2010,08,16,15,14,28.00
2010,08,16,15,15,28.00
2010,08,16,15,16,28.00
2010,08,16,15,17,27.90
2010,08,16,15,18,27.90
2010,08,16,15,19,27.80
2010,08,16,15,20,27.80
2010,08,16,15,21,27.80
2010,08,16,15,22,27.80
2010,08,16,15,23,27.90
2010,08,16,15,24,28.00
2010,08,16,15,25,28.00
2010,08,16,15,26,27.90
2010,08,16,15,27,27.80
2010,08,16,15,28,27.70
2010,08,16,15,29,27.70
2010,08,16,15,30,27.80
2010,08,16,15,31,27.90
2010,08,16,15,32,28.00
2010,08,16,15,33,28.00
2010,08,16,15,34,28.00
2010,08,16,15,35,28.00
2010,08,16,15,36,28.10
2010,08,16,15,37,28.10
2010,08,16,15,38,28.10
2010,08,16,15,39,28.00
2010,08,16,15,40,27.90
2010,08,16,15,41,27.90
2010,08,16,15,42,28.00
2010,08,16,15,43,28.00
2010,08,16,15,44,28.10
2010,08,16,15,45,28.20
2010,08,16,15,46,28.30
2010,08,16,15,47,28.30
2010,08,16,15,48,28.20
2010,08,16,15,49,28.20
2010,08,16,15,50,28.20
2010,08,16,15,51,28.10
2010,08,16,15,52,28.10
2010,08,16,15,53,28.10
2010,08,16,15,54,28.10
2010,08,16,15,55,28.10
2010,08,16,15,56,28.20
2010,08,16,15,57,28.20
2010,08,16,15,58,28.20
2010,08,16,15,59,28.20
2010,08,16,16,00,28.10
2010,08,16,16,01,28.20
2010,08,16,16,02,28.20
2010,08,16,16,03,28.30
2010,08,16,16,04,28.40
2010,08,16,16,05,28.40
2010,08,16,16,06,28.30
2010,08,16,16,07,28.30
2010,08,16,16,08,28.20
2010,08,16,16,09,28.10
2010,08,16,16,10,28.10
2010,08,16,16,11,27.90
2010,08,16,16,12,27.90
2010,08,16,16,13,27.90
2010,08,16,16,14,27.90
2010,08,16,16,15,27.80
2010,08,16,16,16,27.80
2010,08,16,16,17,27.80
2010,08,16,16,18,27.80
2010,08,16,16,19,27.80
2010,08,16,16,20,27.80
2010,08,16,16,21,27.70
2010,08,16,16,22,27.70
2010,08,16,16,23,27.80
2010,08,16,16,24,27.80
2010,08,16,16,25,27.70
2010,08,16,16,26,27.70
2010,08,16,16,27,27.70
2010,08,16,16,28,27.70
2010,08,16,16,29,27.70
2010,08,16,16,30,27.60
2010,08,16,16,31,27.60
2010,08,16,16,32,27.60
2010,08,16,16,33,27.60
2010,08,16,16,34,27.60
2010,08,16,16,35,27.40
2010,08,16,16,36,27.30
2010,08,16,16,37,27.30
2010,08,16,16,38,27.30
2010,08,16,16,39,27.30
2010,08,16,16,40,27.40
2010,08,16,16,41,27.40
2010,08,16,16,42,27.40
2010,08,16,16,43,27.30
2010,08,16,16,44,27.30
2010,08,16,16,45,27.30
2010,08,16,16,46,27.30
2010,08,16,16,47,27.10
2010,08,16,16,48,27.00
2010,08,16,16,49,26.90
2010,08,16,16,50,26.80
2010,08,16,16,51,26.60
2010,08,16,16,52,26.60
2010,08,16,16,53,26.60
2010,08,16,16,54,26.60
2010,08,16,16,55,26.60
2010,08,16,16,56,26.60
2010,08,16,16,57,26.60
2010,08,16,16,58,26.60
2010,08,16,16,59,26.60
2010,08,16,17,00,26.60
2010,08,16,17,01,26.60
2010,08,16,17,02,26.60
2010,08,16,17,03,26.60
2010,08,16,17,04,26.60
2010,08,16,17,05,26.60
2010,08,16,17,06,26.60
2010,08,16,17,07,26.70
2010,08,16,17,08,26.70
2010,08,16,17,09,26.80
2010,08,16,17,10,26.80
2010,08,16,17,11,26.70
2010,08,16,17,12,26.80
2010,08,16,17,13,27.00
2010,08,16,17,14,27.20
2010,08,16,17,15,27.20
2010,08,16,17,16,27.10
2010,08,16,17,17,27.10
2010,08,16,17,18,27.10
2010,08,16,17,19,27.10